Weather History for Casper, WY

Change the Weather History Date:

Tuesday, January 15, 2013

  Actual Average Record
Temperature  
Mean Temperature 14 °F 25 °F  
Max Temperature 22 °F 35 °F 52 °F (1995)
Min Temperature 5 °F 15 °F -20 °F (1957)
Degree Days  
Heating Degree Days 51 40  
Month to date heating degree days 696 605  
Since 1 July heating degree days 3419 3734  
Cooling Degree Days 0 0  
Month to date cooling degree days 0 0  
Year to date cooling degree days 0 0  
Moisture  
Dew Point 4 °F    
Average Humidity 61    
Maximum Humidity 66    
Minimum Humidity 56    
Precipitation  
Precipitation 0.00 in 0.02 in 0.30 in (1943)
Month to date precipitation 0.11 0.25  
Year to date precipitation 0.11 0.25  
Snow  
Snow 0.00 in 0.30 in - ()
Month to date snowfall 2.2 4.5  
Since 1 July snowfall 20.9 35.0  
Snow Depth 1.00 in    
Sea Level Pressure  
Sea Level Pressure 30.27 in    
Wind  
Wind Speed 26 mph (SSW)    
Max Wind Speed 33 mph    
Max Gust Speed 44 mph    
Visibility 10 miles    
Events      
T = Trace of Precipitation, MM = Missing Value Source: NWS Daily Summary

Daily Weather History Graph

Daily Weather History Graph

Search for Another Location

Airport:

Trip Planner

Search our weather history database for the weather conditions in past years. The results will help you decide how hot, cold, wet, or windy it might be!

Date:

Astronomy

Jan. 15, 2013 Rise Set
Actual Time 7:33 AM MST 4:57 PM MST
Civil Twilight 7:02 AM MST 5:28 PM MST
Nautical Twilight 6:27 AM MST 6:03 PM MST
Astronomical Twilight 5:53 AM MST 6:37 PM MST
Moon 9:33 AM MST (1/15) 9:58 PM MST (1/15)
Length of Visible Light 10h 26m
Length of Day
9h 23m
Waxing Crescent, 20% of the Moon is Illuminated
Jan 15
Waxing Crescent
Jan 18
First Quarter
Jan 26
Full
Feb 3
Last Quarter
Feb 10
New

Hourly Weather History & Observations

Time (MST) Temp. Windchill Dew Point Humidity Pressure Visibility Wind Dir Wind Speed Gust Speed Precip Events Conditions
12:53 AM 7.0 °F -14.9 °F -6.0 °F 55% 30.25 in 10.0 mi SSW 25.3 mph 35.7 mph N/A   Overcast
1:53 AM 7.0 °F -14.5 °F -4.0 °F 61% 30.25 in 10.0 mi SSW 24.2 mph 34.5 mph N/A   Overcast
2:53 AM 8.1 °F -14.5 °F -2.9 °F 61% 30.26 in 10.0 mi SSW 28.8 mph 38.0 mph N/A   Overcast
3:53 AM 8.6 °F -11.9 °F -2.2 °F 62% 30.03 in 10.0 mi SW 23.0 mph 32.2 mph N/A   Overcast
4:53 AM 9.0 °F -11.4 °F -2.0 °F 61% 30.27 in 10.0 mi SSW 23.0 mph 32.2 mph N/A   Overcast
5:53 AM 8.1 °F -12.2 °F -2.9 °F 61% 30.29 in 10.0 mi SW 21.9 mph 33.4 mph N/A   Scattered Clouds
6:53 AM 10.0 °F -11.1 °F -2.0 °F 58% 30.29 in 10.0 mi SW 26.5 mph 35.7 mph N/A   Overcast
7:53 AM 10.9 °F -11.3 °F -0.0 °F 61% 30.30 in 10.0 mi SW 31.1 mph 39.1 mph N/A   Overcast
8:53 AM 10.9 °F -10.3 °F 1.0 °F 64% 30.32 in 10.0 mi SSW 27.6 mph 35.7 mph N/A   Mostly Cloudy
9:53 AM 14.0 °F -6.2 °F 3.9 °F 64% 30.30 in 10.0 mi SSW 27.6 mph 38.0 mph N/A   Overcast
10:53 AM 16.0 °F -4.1 °F 5.0 °F 62% 30.30 in 10.0 mi SSW 29.9 mph 39.1 mph N/A   Overcast
11:53 AM 17.1 °F -2.0 °F 6.1 °F 62% 30.28 in 10.0 mi SSW 27.6 mph 35.7 mph N/A   Overcast
12:53 PM 19.0 °F 0.6 °F 7.0 °F 59% 30.25 in 10.0 mi SSW 27.6 mph 40.3 mph N/A   Mostly Cloudy
1:53 PM 19.9 °F 0.4 °F 8.1 °F 60% 30.24 in 10.0 mi SSW 33.4 mph 41.4 mph N/A   Overcast
2:53 PM 21.9 °F 4.5 °F 9.0 °F 58% 30.23 in 10.0 mi SSW 27.6 mph 38.0 mph N/A   Clear
3:53 PM 21.0 °F 3.6 °F 9.0 °F 60% 30.24 in 10.0 mi SSW 26.5 mph 36.8 mph N/A   Scattered Clouds
4:53 PM 21.0 °F 3.9 °F 8.1 °F 57% 30.27 in 10.0 mi SW 25.3 mph 35.7 mph N/A   Mostly Cloudy
5:53 PM 19.9 °F 2.2 °F 8.1 °F 60% 30.29 in 10.0 mi SW 26.5 mph 34.5 mph N/A   Mostly Cloudy
6:53 PM 19.9 °F 3.2 °F 8.1 °F 60% 30.31 in 10.0 mi SSW 23.0 mph 32.2 mph N/A   Mostly Cloudy
7:53 PM 19.0 °F 1.0 °F 7.0 °F 59% 30.31 in 10.0 mi SSW 26.5 mph 34.5 mph N/A   Scattered Clouds
8:53 PM 19.0 °F 1.6 °F 7.0 °F 59% 30.32 in 10.0 mi SSW 24.2 mph 33.4 mph N/A   Scattered Clouds
9:53 PM 19.9 °F 1.8 °F 8.1 °F 60% 30.32 in 10.0 mi SSW 27.6 mph 39.1 mph N/A   Overcast
11:53 PM 19.9 °F 4.8 °F 8.1 °F 60% 30.31 in 10.0 mi SW 18.4 mph 32.2 mph N/A   Partly Cloudy